Change the Weather History Date:

Friday, November 15, 2013

  Actual Average Record
Temperature  
Mean Temperature 44 °F 47 °F  
Max Temperature 62 °F 58 °F 81 °F (1993)
Min Temperature 25 °F 36 °F 19 °F (1986)
Degree Days  
Heating Degree Days 21 18  
Month to date heating degree days 274 241  
Since 1 July heating degree days 583 597  
Cooling Degree Days 0 0  
Month to date cooling degree days 1 0  
Year to date cooling degree days 1272 1176  
Moisture  
Dew Point 23 °F    
Average Humidity 52    
Maximum Humidity 85    
Minimum Humidity 19    
Precipitation  
Precipitation 0.08 in 0.12 in 0.73 in (2007)
Month to date precipitation 0.29 1.68  
Year to date precipitation 37.26 36.85  
Snow  
Snow 0.00 in 0.00 in T in (1995)
Month to date snowfall 0.0 0.1  
Since 1 July snowfall 0.0 0.1  
Snow Depth 0.00 in    
Sea Level Pressure  
Sea Level Pressure 30.24 in    
Wind  
Wind Speed 3 mph (South)    
Max Wind Speed 10 mph    
Max Gust Speed 21 mph    
Visibility 10 miles    
Events Rain    
T = Trace of Precipitation, MM = Missing Value Source: NWS Daily Summary

Daily Weather History Graph

Daily Weather History Graph

Search for Another Location

Airport or City:

Trip Planner

Search our weather history database for the weather conditions in past years. The results will help you decide how hot, cold, wet, or windy it might be!

Date:

Astronomy

Nov. 15, 2013 Rise Set
Actual Time 6:52 AM EST 4:55 PM EST
Civil Twilight 6:24 AM EST 5:24 PM EST
Nautical Twilight 5:51 AM EST 5:56 PM EST
Astronomical Twilight 5:20 AM EST 6:28 PM EST
Moon 3:50 PM EST (11/15) 4:48 AM EST (11/15)
Length of Visible Light 10h 59m
Length of Day
10h 02m
Waxing Gibbous, 96% of the Moon is Illuminated
Nov 15
Waxing Gibbous
Nov 17
Full
Nov 25
Last Quarter
Dec 2
New
Dec 9
First Quarter

Hourly Weather History & Observations

Time (EST) Temp. Windchill Dew Point Humidity Pressure Visibility Wind Dir Wind Speed Gust Speed Precip Events Conditions
12:52 AM 35.1 °F - 19.9 °F 54% 30.22 in 10.0 mi Calm Calm - N/A   Clear
1:52 AM 34.0 °F - 19.9 °F 56% 30.22 in 10.0 mi Calm Calm - N/A   Clear
2:52 AM 28.9 °F - 21.0 °F 72% 30.23 in 10.0 mi Calm Calm - N/A   Scattered Clouds
3:52 AM 28.0 °F - 21.0 °F 75% 30.22 in 10.0 mi Calm Calm - N/A   Scattered Clouds
4:52 AM 27.0 °F 23.0 °F 19.9 °F 75% 30.24 in 10.0 mi Variable 3.5 mph - N/A   Partly Cloudy
5:52 AM 26.1 °F - 19.9 °F 78% 30.25 in 10.0 mi Calm Calm - N/A   Scattered Clouds
6:52 AM 25.0 °F 18.1 °F 19.9 °F 81% 30.28 in 10.0 mi SW 5.8 mph - N/A   Scattered Clouds
7:52 AM 28.0 °F - 24.1 °F 85% 30.28 in 10.0 mi Calm Calm - N/A   Mostly Cloudy
8:52 AM 35.1 °F - 27.0 °F 72% 30.29 in 10.0 mi Calm Calm - N/A   Overcast
9:52 AM 41.0 °F 38.0 °F 28.0 °F 60% 30.29 in 10.0 mi South 4.6 mph - N/A   Mostly Cloudy
10:52 AM 46.9 °F - 24.1 °F 41% 30.29 in 10.0 mi South 3.5 mph - N/A   Mostly Cloudy
11:52 AM 53.1 °F - 21.0 °F 29% 30.25 in 10.0 mi Calm Calm - N/A   Mostly Cloudy
12:52 PM 60.1 °F - 19.9 °F 21% 30.22 in 10.0 mi Variable 3.5 mph - N/A   Mostly Cloudy
1:52 PM 60.1 °F - 21.0 °F 22% 30.20 in 10.0 mi SSW 5.8 mph - N/A   Mostly Cloudy
2:52 PM 60.1 °F - 17.1 °F 19% 30.19 in 10.0 mi SSW 5.8 mph - 0.01 in   Mostly Cloudy
3:52 PM 59.0 °F - 19.0 °F 21% 30.19 in 10.0 mi SSE 8.1 mph - N/A   Mostly Cloudy
4:52 PM 55.0 °F - 19.0 °F 24% 30.20 in 10.0 mi SE 5.8 mph - N/A   Mostly Cloudy
5:52 PM 52.0 °F - 21.0 °F 30% 30.21 in 10.0 mi SE 4.6 mph - N/A   Overcast
6:52 PM 52.0 °F - 24.1 °F 34% 30.22 in 10.0 mi SSE 4.6 mph - N/A   Overcast
7:52 PM 51.1 °F - 26.1 °F 38% 30.23 in 10.0 mi Calm Calm - N/A   Overcast
8:52 PM 50.0 °F - 28.9 °F 44% 30.23 in 10.0 mi Calm Calm - N/A   Overcast
9:52 PM 50.0 °F - 28.9 °F 44% 30.24 in 10.0 mi South 4.6 mph - N/A   Overcast
10:52 PM 48.0 °F - 36.0 °F 63% 30.26 in 7.0 mi Calm Calm - 0.01 in Rain Light Rain
11:52 PM 45.0 °F - 41.0 °F 86% 30.27 in 7.0 mi Calm Calm - 0.05 in Rain Light Rain